"Pseudo-MPEC" for RdSH188

Created 2023 Sep 19 12:22:43 UT using Find_Orb

Click here for an explanation of pseudo-MPECs

 
 Astrometry: 
     RdSH188*KB2023 09 12uUQi[1S#r10giAstrometry4WQoknXg\B=x%8S0\5Bredacted;iY89
     RdSH188 KB2023 09 12kEb#UO?xcP%'2ZsZl:p51nn$H%`7!O\k_U@Y-*c$ckjclickC$6XY89
     RdSH188 KB2023 09 12t%iBsmjx-'S7S(WbIjp-hereTNpE:cB*Apfor/d8explanation\Y89

Station data:
(Y89) Proxima Centauri Observatory, Valdin  (N42.222443 W6.988110)  Spain.

Orbital elements:  RdSH188
   Perihelion 2023 Aug 10.16429 +/- 36.9 TT =  3:56:34 (JD 2460166.66429)
Epoch 2023 Sep 13.0 TT = JDT 2460200.5   Earth MOID: 0.0070   Ma: 0.0480
M  11.55240742 +/- 18               (J2000 ecliptic)             AutoNEOCP
n   0.34142647 +/- 0.283            Peri.  349.96084 +/- 100
a   2.02739289 +/- 1.12             Node   319.75707 +/- 60
e   0.5181285 +/- 0.252             Incl.    1.53612 +/- 3.4
P   2.89                   H 26.05  G  0.15   U 11.9  SR
q 0.97694283 +/- 0.165    Q 3.07784296 +/- 43.4
From 3 observations 2023 Sept. 12 (22.3 min); mean residual 0".41
Residuals in arcseconds: 
230912 Y89  .37+  .17+    230912 Y89  .75-  .35-    230912 Y89  .37+  .17+    

Ephemerides (geocentric):
Date (UTC) HH   RA             Dec           delta  r     elong  mag " sig PA
---- --------  ------------   ------------  ------ ------ -----  --- --------
2023 09 19 12  23 55 13.086   +11 24 26.46  .09289 1.0953 166.8 21.8  68d  85
2023 09 19 13  23 55 22.185   +11 24 27.16  .09313 1.0955 166.8 21.8  68d  85
2023 09 19 14  23 55 31.238   +11 24 27.79  .09336 1.0958 166.8 21.8  68d  85
2023 09 19 15  23 55 40.245   +11 24 28.33  .09359 1.0960 166.8 21.8  68d  85
2023 09 19 16  23 55 49.206   +11 24 28.80  .09383 1.0962 166.8 21.8  68d  85
2023 09 19 17  23 55 58.122   +11 24 29.20  .09406 1.0964 166.8 21.8  68d  85
2023 09 19 18  23 56 06.994   +11 24 29.51  .09430 1.0966 166.9 21.8  68d  85
2023 09 19 19  23 56 15.821   +11 24 29.76  .09453 1.0969 166.9 21.9  68d  85
2023 09 19 20  23 56 24.603   +11 24 29.93  .09477 1.0971 166.9 21.9  68d  85
2023 09 19 21  23 56 33.342   +11 24 30.03  .09500 1.0973 166.9 21.9  68d  85
2023 09 19 22  23 56 42.037   +11 24 30.05  .09524 1.0975 166.9 21.9  68d  85
2023 09 19 23  23 56 50.688   +11 24 30.01  .09547 1.0978 166.9 21.9  69d  85
2023 09 20 00  23 56 59.297   +11 24 29.89  .09571 1.0980 166.9 21.9  69d  85
2023 09 20 01  23 57 07.863   +11 24 29.70  .09595 1.0982 167.0 21.9  69d  85
2023 09 20 02  23 57 16.386   +11 24 29.45  .09618 1.0984 167.0 21.9  69d  85
2023 09 20 03  23 57 24.867   +11 24 29.12  .09642 1.0987 167.0 21.9  69d  85
2023 09 20 04  23 57 33.307   +11 24 28.73  .09665 1.0989 167.0 21.9  69d  85
2023 09 20 05  23 57 41.704   +11 24 28.26  .09689 1.0991 167.0 21.9  69d  85
2023 09 20 06  23 57 50.061   +11 24 27.73  .09713 1.0993 167.0 21.9  69d  85
2023 09 20 07  23 57 58.376   +11 24 27.13  .09736 1.0996 167.1 21.9  69d  85
2023 09 20 08  23 58 06.651   +11 24 26.47  .09760 1.0998 167.1 21.9  69d  85
2023 09 20 09  23 58 14.885   +11 24 25.74  .09783 1.1000 167.1 21.9  69d  85
2023 09 20 10  23 58 23.079   +11 24 24.95  .09807 1.1002 167.1 21.9  69d  85
2023 09 20 11  23 58 31.233   +11 24 24.09  .09831 1.1005 167.1 21.9  69d  85
2023 09 20 12  23 58 39.347   +11 24 23.16  .09855 1.1007 167.1 21.9  69d  85
2023 09 20 13  23 58 47.422   +11 24 22.18  .09878 1.1009 167.2 21.9  69d  85
2023 09 20 14  23 58 55.458   +11 24 21.13  .09902 1.1011 167.2 21.9  69d  85
2023 09 20 15  23 59 03.455   +11 24 20.01  .09926 1.1014 167.2 22.0  69d  85
2023 09 20 16  23 59 11.414   +11 24 18.84  .09949 1.1016 167.2 22.0  69d  85
2023 09 20 17  23 59 19.334   +11 24 17.60  .09973 1.1018 167.2 22.0  69d  85
2023 09 20 18  23 59 27.216   +11 24 16.31  .09997 1.1021 167.2 22.0  69d  85
2023 09 20 19  23 59 35.060   +11 24 14.95  .10021 1.1023 167.3 22.0  69d  85
2023 09 20 20  23 59 42.867   +11 24 13.53  .10044 1.1025 167.3 22.0  69d  85
2023 09 20 21  23 59 50.636   +11 24 12.06  .10068 1.1027 167.3 22.0  69d  85
2023 09 20 22  23 59 58.368   +11 24 10.52  .10092 1.1030 167.3 22.0  69d  85
2023 09 20 23  00 00 06.063   +11 24 08.93  .10116 1.1032 167.3 22.0  69d  85
2023 09 21 00  00 00 13.722   +11 24 07.28  .10140 1.1034 167.4 22.0  69d  85
2023 09 21 01  00 00 21.344   +11 24 05.57  .10164 1.1036 167.4 22.0  69d  85
2023 09 21 02  00 00 28.930   +11 24 03.80  .10187 1.1039 167.4 22.0  69d  85
2023 09 21 03  00 00 36.481   +11 24 01.98  .10211 1.1041 167.4 22.0  69d  85
2023 09 21 04  00 00 43.995   +11 24 00.10  .10235 1.1043 167.4 22.0  69d  85
2023 09 21 05  00 00 51.475   +11 23 58.17  .10259 1.1046 167.4 22.0  69d  85
2023 09 21 06  00 00 58.919   +11 23 56.18  .10283 1.1048 167.5 22.0  70d  85
2023 09 21 07  00 01 06.328   +11 23 54.14  .10307 1.1050 167.5 22.0  70d  85
2023 09 21 08  00 01 13.702   +11 23 52.04  .10331 1.1052 167.5 22.0  70d  85
2023 09 21 09  00 01 21.042   +11 23 49.89  .10355 1.1055 167.5 22.0  70d  85
2023 09 21 10  00 01 28.348   +11 23 47.69  .10379 1.1057 167.5 22.0  70d  85
2023 09 21 11  00 01 35.619   +11 23 45.43  .10403 1.1059 167.5 22.1  70d  85